VOZ1865 YPPH-YPKG

Flight info

Callsign VOZ1865
Flight time 0h 52m
Altitude 35000
Route AMANA Y31 LAKIR Y69 BOSLI Y67 KG
Aircraft B737/M-SDE2E3FGHIRWXY/LB1

Departure

Time 2026-04-27 05:14
Airport Perth International Airport (YPPH)

Arrival

Time 2026-04-27 06:07
Airport Kalgoorlie Boulder Airport (YPKG)
Time Latitude Longitude Altitude Speed Heading
2026-04-27 04:39 -31.94123 115.96921 70 ft 0 kts
2026-04-27 05:02 -31.94135 115.96919 70 ft 2 kts
2026-04-27 05:02 -31.94165 115.96916 70 ft 2 kts
2026-04-27 05:03 -31.94175 115.96915 70 ft 2 kts
2026-04-27 05:03 -31.94189 115.96918 70 ft 2 kts 329°
2026-04-27 05:03 -31.94201 115.96930 70 ft 2 kts 302°
2026-04-27 05:03 -31.94205 115.96939 70 ft 1 kts 286°
2026-04-27 05:04 -31.94206 115.96945 71 ft 0 kts 287°
2026-04-27 05:07 -31.94205 115.96944 70 ft 1 kts 287°
2026-04-27 05:07 -31.94199 115.96918 70 ft 3 kts 284°
2026-04-27 05:07 -31.94193 115.96892 69 ft 3 kts 284°
2026-04-27 05:07 -31.94187 115.96865 69 ft 4 kts 288°
2026-04-27 05:08 -31.94164 115.96835 68 ft 4 kts 333°
2026-04-27 05:08 -31.94139 115.96828 68 ft 2 kts 358°
2026-04-27 05:08 -31.94104 115.96835 68 ft 8 kts 14°
2026-04-27 05:08 -31.94028 115.96858 69 ft 13 kts 14°
2026-04-27 05:09 -31.93943 115.96884 67 ft 12 kts 13°
2026-04-27 05:09 -31.93850 115.96909 65 ft 14 kts 14°
2026-04-27 05:09 -31.93758 115.96936 64 ft 12 kts 15°
2026-04-27 05:09 -31.93671 115.96962 62 ft 15 kts 13°
2026-04-27 05:10 -31.93564 115.96993 62 ft 14 kts 13°
2026-04-27 05:10 -31.93463 115.97021 61 ft 17 kts 13°
2026-04-27 05:10 -31.93350 115.97056 59 ft 16 kts 15°
2026-04-27 05:10 -31.93250 115.97085 59 ft 13 kts 14°
2026-04-27 05:11 -31.93168 115.97108 59 ft 11 kts 14°
2026-04-27 05:11 -31.93097 115.97129 58 ft 10 kts 15°
2026-04-27 05:11 -31.93029 115.97150 58 ft 10 kts 14°
2026-04-27 05:11 -31.92953 115.97147 58 ft 12 kts 323°
2026-04-27 05:12 -31.92925 115.97062 56 ft 10 kts 284°
2026-04-27 05:12 -31.92903 115.96960 55 ft 13 kts 284°
2026-04-27 05:12 -31.92894 115.96861 55 ft 11 kts 248°
2026-04-27 05:12 -31.92924 115.96828 55 ft 0 kts 195°
2026-04-27 05:13 -31.92925 115.96828 55 ft 0 kts 195°
2026-04-27 05:13 -31.92994 115.96808 55 ft 32 kts 193°
2026-04-27 05:14 -31.93436 115.96681 61 ft 96 kts 194°
2026-04-27 05:14 -31.94271 115.96435 72 ft 146 kts 193°
2026-04-27 05:14 -31.95262 115.96133 612 ft 146 kts 195°
2026-04-27 05:14 -31.96268 115.95791 1024 ft 161 kts 196°
2026-04-27 05:15 -31.97387 115.95421 1460 ft 174 kts 195°
2026-04-27 05:15 -31.98636 115.95059 1915 ft 193 kts 194°
2026-04-27 05:15 -32.00011 115.94749 2408 ft 214 kts 187°
2026-04-27 05:15 -32.01573 115.94994 2912 ft 240 kts 160°
2026-04-27 05:16 -32.02958 115.96192 3423 ft 263 kts 129°
2026-04-27 05:16 -32.03822 115.98151 4041 ft 277 kts 108°
2026-04-27 05:16 -32.04353 116.00382 4704 ft 289 kts 103°
2026-04-27 05:16 -32.04846 116.02695 5559 ft 293 kts 103°
2026-04-27 05:17 -32.05365 116.05017 6330 ft 301 kts 104°
2026-04-27 05:17 -32.05921 116.07394 7204 ft 305 kts 104°
2026-04-27 05:17 -32.06501 116.09837 8057 ft 310 kts 104°
2026-04-27 05:17 -32.07084 116.12286 8858 ft 317 kts 103°
2026-04-27 05:18 -32.07683 116.14815 9742 ft 322 kts 103°
2026-04-27 05:18 -32.08242 116.17393 10481 ft 331 kts 98°
2026-04-27 05:18 -32.08387 116.20121 11061 ft 340 kts 78°
2026-04-27 05:18 -32.07654 116.22791 11641 ft 344 kts 56°
2026-04-27 05:19 -32.06201 116.25005 12313 ft 345 kts 40°
2026-04-27 05:19 -32.04488 116.27026 13217 ft 349 kts 40°
2026-04-27 05:19 -32.02809 116.29085 14124 ft 354 kts 41°
2026-04-27 05:19 -32.01107 116.31234 14965 ft 361 kts 40°
2026-04-27 05:20 -31.99388 116.33374 15917 ft 363 kts 40°
2026-04-27 05:20 -31.97663 116.35534 16814 ft 366 kts 41°
2026-04-27 05:20 -31.95907 116.37749 17550 ft 373 kts 41°
2026-04-27 05:20 -31.94136 116.39974 17876 ft 373 kts 40°
2026-04-27 05:21 -31.92337 116.42228 17971 ft 375 kts 40°
2026-04-27 05:21 -31.90556 116.44453 17966 ft 374 kts 40°
2026-04-27 05:21 -31.88754 116.46693 18192 ft 383 kts 40°
2026-04-27 05:21 -31.86960 116.48919 19291 ft 377 kts 40°
2026-04-27 05:22 -31.85143 116.51174 20162 ft 379 kts 40°
2026-04-27 05:22 -31.83316 116.53436 20884 ft 384 kts 40°
2026-04-27 05:22 -31.81495 116.55694 21692 ft 386 kts 40°
2026-04-27 05:22 -31.79628 116.58007 22374 ft 391 kts 40°
2026-04-27 05:23 -31.77771 116.60305 23162 ft 392 kts 40°
2026-04-27 05:23 -31.75887 116.62633 23855 ft 396 kts 40°
2026-04-27 05:23 -31.73959 116.65013 24482 ft 402 kts 40°
2026-04-27 05:23 -31.72037 116.67392 25151 ft 405 kts 40°
2026-04-27 05:24 -31.70109 116.69775 25772 ft 409 kts 40°
2026-04-27 05:24 -31.68127 116.72218 26339 ft 414 kts 39°
2026-04-27 05:24 -31.66154 116.74649 27018 ft 415 kts 40°
2026-04-27 05:24 -31.64132 116.77145 27629 ft 419 kts 39°
2026-04-27 05:25 -31.62143 116.79591 28226 ft 421 kts 40°
2026-04-27 05:25 -31.60129 116.82096 28854 ft 423 kts 40°
2026-04-27 05:25 -31.58092 116.84629 29522 ft 424 kts 41°
2026-04-27 05:25 -31.56223 116.87243 30289 ft 424 kts 46°
2026-04-27 05:26 -31.54579 116.90067 31067 ft 423 kts 52°
2026-04-27 05:26 -31.53083 116.93087 31613 ft 426 kts 55°
2026-04-27 05:26 -31.51702 116.96134 32108 ft 429 kts 57°
2026-04-27 05:26 -31.50353 116.99238 32665 ft 429 kts 58°
2026-04-27 05:27 -31.49023 117.02339 33179 ft 429 kts 58°
2026-04-27 05:27 -31.47689 117.05451 33751 ft 428 kts 58°
2026-04-27 05:27 -31.46351 117.08558 34346 ft 427 kts 57°
2026-04-27 05:27 -31.44998 117.11681 34881 ft 427 kts 57°
2026-04-27 05:28 -31.43633 117.14811 34978 ft 432 kts 57°
2026-04-27 05:28 -31.40908 117.21030 34989 ft 425 kts 57°
2026-04-27 05:29 -31.38201 117.27175 34991 ft 426 kts 57°
2026-04-27 05:29 -31.35511 117.33265 34988 ft 425 kts 57°
2026-04-27 05:30 -31.32790 117.39409 34996 ft 426 kts 57°
2026-04-27 05:30 -31.30055 117.45573 34999 ft 425 kts 57°
2026-04-27 05:31 -31.27332 117.51701 35000 ft 425 kts 57°
2026-04-27 05:31 -31.24688 117.57879 34993 ft 427 kts 59°
2026-04-27 05:32 -31.22171 117.64123 34998 ft 427 kts 59°
2026-04-27 05:32 -31.19648 117.70410 35009 ft 426 kts 59°
2026-04-27 05:33 -31.17119 117.76662 35010 ft 425 kts 58°
2026-04-27 05:33 -31.14589 117.82878 35011 ft 425 kts 58°
2026-04-27 05:34 -31.12035 117.89121 35009 ft 425 kts 58°
2026-04-27 05:34 -31.09478 117.95358 35014 ft 425 kts 58°
2026-04-27 05:35 -31.06927 118.01568 35017 ft 425 kts 59°
2026-04-27 05:35 -31.04392 118.07731 35013 ft 425 kts 58°
2026-04-27 05:36 -31.01837 118.13930 35020 ft 425 kts 58°
2026-04-27 05:36 -30.99263 118.20160 35015 ft 426 kts 58°
2026-04-27 05:37 -30.96692 118.26365 35015 ft 427 kts 58°
2026-04-27 05:37 -30.94108 118.32595 35014 ft 426 kts 58°
2026-04-27 05:38 -30.91543 118.38770 35015 ft 425 kts 58°
2026-04-27 05:38 -30.88951 118.45004 35017 ft 427 kts 57°
2026-04-27 05:39 -30.86363 118.51216 35018 ft 427 kts 57°
2026-04-27 05:39 -30.83775 118.57423 35016 ft 426 kts 57°
2026-04-27 05:40 -30.81174 118.63635 35021 ft 428 kts 58°
2026-04-27 05:40 -30.78587 118.69813 35021 ft 427 kts 57°
2026-04-27 05:41 -30.75977 118.76046 35022 ft 427 kts 57°
2026-04-27 05:41 -30.73383 118.82254 35021 ft 430 kts 58°
2026-04-27 05:42 -30.71564 118.88905 35025 ft 441 kts 75°
2026-04-27 05:42 -30.71005 118.96052 35026 ft 447 kts 81°
2026-04-27 05:43 -30.70751 119.03286 35027 ft 449 kts 83°
2026-04-27 05:43 -30.70515 119.10485 35029 ft 449 kts 82°
2026-04-27 05:44 -30.70251 119.17709 34825 ft 442 kts 82°
2026-04-27 05:44 -30.70112 119.21275 34441 ft 437 kts 82°
2026-04-27 05:44 -30.69967 119.24788 33900 ft 435 kts 81°
2026-04-27 05:44 -30.69819 119.28244 33317 ft 434 kts 81°
2026-04-27 05:45 -30.69663 119.31731 32714 ft 435 kts 81°
2026-04-27 05:45 -30.69500 119.35269 32086 ft 435 kts 81°
2026-04-27 05:45 -30.69337 119.38739 31558 ft 432 kts 82°
2026-04-27 05:45 -30.69175 119.42210 31104 ft 428 kts 82°
2026-04-27 05:46 -30.69012 119.45657 30631 ft 425 kts 82°
2026-04-27 05:46 -30.68849 119.49060 30133 ft 422 kts 82°
2026-04-27 05:46 -30.68690 119.52403 29654 ft 419 kts 82°
2026-04-27 05:46 -30.68533 119.55739 29188 ft 415 kts 82°
2026-04-27 05:47 -30.68374 119.59096 28705 ft 412 kts 82°
2026-04-27 05:47 -30.68212 119.62398 28231 ft 409 kts 82°
2026-04-27 05:47 -30.68048 119.65675 27766 ft 406 kts 82°
2026-04-27 05:47 -30.67885 119.68922 27298 ft 403 kts 82°
2026-04-27 05:48 -30.67720 119.72159 26825 ft 400 kts 81°
2026-04-27 05:48 -30.67559 119.75370 26361 ft 397 kts 82°
2026-04-27 05:48 -30.67403 119.78550 25887 ft 394 kts 82°
2026-04-27 05:48 -30.67246 119.81686 25427 ft 391 kts 82°
2026-04-27 05:49 -30.67093 119.84785 24978 ft 387 kts 82°
2026-04-27 05:49 -30.66937 119.87891 24529 ft 384 kts 82°
2026-04-27 05:49 -30.66783 119.90974 24077 ft 381 kts 82°
2026-04-27 05:49 -30.66628 119.94025 23639 ft 379 kts 82°
2026-04-27 05:50 -30.66466 119.97079 23188 ft 377 kts 82°
2026-04-27 05:50 -30.66310 120.00071 22737 ft 375 kts 83°
2026-04-27 05:50 -30.66155 120.03106 22301 ft 372 kts 82°
2026-04-27 05:50 -30.65999 120.06098 21871 ft 370 kts 83°
2026-04-27 05:51 -30.65844 120.09085 21413 ft 368 kts 84°
2026-04-27 05:51 -30.65708 120.12020 20973 ft 366 kts 84°
2026-04-27 05:51 -30.65564 120.14944 20533 ft 363 kts 83°
2026-04-27 05:51 -30.65409 120.17879 20097 ft 360 kts 84°
2026-04-27 05:52 -30.65258 120.20741 19668 ft 356 kts 84°
2026-04-27 05:52 -30.65091 120.23595 19244 ft 352 kts 85°
2026-04-27 05:52 -30.64934 120.26369 18833 ft 347 kts 84°
2026-04-27 05:52 -30.64780 120.29164 18417 ft 343 kts 85°
2026-04-27 05:53 -30.64635 120.31910 18002 ft 340 kts 85°
2026-04-27 05:53 -30.64490 120.34608 17611 ft 336 kts 85°
2026-04-27 05:53 -30.64345 120.37302 17205 ft 335 kts 85°
2026-04-27 05:53 -30.64197 120.39999 16799 ft 334 kts 85°
2026-04-27 05:54 -30.64050 120.42687 16393 ft 333 kts 84°
2026-04-27 05:54 -30.63901 120.45358 15985 ft 333 kts 84°
2026-04-27 05:54 -30.63753 120.48018 15570 ft 332 kts 84°
2026-04-27 05:54 -30.63601 120.50684 15170 ft 331 kts 84°
2026-04-27 05:55 -30.63462 120.53345 14775 ft 329 kts 85°
2026-04-27 05:55 -30.63328 120.55967 14373 ft 328 kts 84°
2026-04-27 05:55 -30.63204 120.58598 13974 ft 327 kts 84°
2026-04-27 05:55 -30.63055 120.61249 13577 ft 325 kts 83°
2026-04-27 05:56 -30.62899 120.63868 13182 ft 324 kts 83°
2026-04-27 05:56 -30.62749 120.66457 12782 ft 322 kts 82°
2026-04-27 05:56 -30.62599 120.69037 12387 ft 320 kts 82°
2026-04-27 05:56 -30.62451 120.71589 11999 ft 318 kts 82°
2026-04-27 05:57 -30.62306 120.74136 11599 ft 316 kts 82°
2026-04-27 05:57 -30.62159 120.76694 11202 ft 314 kts 81°
2026-04-27 05:57 -30.62010 120.79202 10814 ft 311 kts 81°
2026-04-27 05:57 -30.61857 120.81669 10368 ft 311 kts 81°
2026-04-27 05:58 -30.61701 120.84142 9941 ft 303 kts 81°
2026-04-27 05:58 -30.61562 120.86520 9755 ft 286 kts 81°
2026-04-27 05:58 -30.61427 120.88795 9426 ft 280 kts 81°
2026-04-27 05:58 -30.61391 120.91027 9065 ft 282 kts 90°
2026-04-27 05:59 -30.61845 120.93252 8737 ft 284 kts 107°
2026-04-27 05:59 -30.62602 120.95391 8388 ft 284 kts 110°
2026-04-27 05:59 -30.63366 120.97490 8049 ft 281 kts 109°
2026-04-27 05:59 -30.64084 120.99589 7701 ft 280 kts 108°
2026-04-27 06:00 -30.65442 121.03829 7019 ft 277 kts 107°
2026-04-27 06:00 -30.66107 121.05912 6679 ft 276 kts 108°
2026-04-27 06:00 -30.66769 121.07996 6339 ft 275 kts 107°
2026-04-27 06:01 -30.67413 121.10067 6018 ft 273 kts 108°
2026-04-27 06:01 -30.68060 121.12130 5669 ft 269 kts 108°
2026-04-27 06:01 -30.68702 121.14136 5359 ft 265 kts 108°
2026-04-27 06:01 -30.69347 121.16138 5071 ft 263 kts 108°
2026-04-27 06:02 -30.69977 121.18114 4784 ft 261 kts 108°
2026-04-27 06:02 -30.70605 121.20084 4404 ft 259 kts 108°
2026-04-27 06:02 -30.71227 121.22022 4019 ft 249 kts 108°
2026-04-27 06:02 -30.71808 121.23840 3718 ft 237 kts 108°
2026-04-27 06:03 -30.72365 121.25616 3426 ft 228 kts 108°
2026-04-27 06:03 -30.72903 121.27325 3157 ft 222 kts 108°
2026-04-27 06:03 -30.73428 121.28958 3085 ft 215 kts 108°
2026-04-27 06:03 -30.73959 121.30605 3084 ft 217 kts 108°
2026-04-27 06:04 -30.74482 121.32214 3080 ft 204 kts 108°
2026-04-27 06:04 -30.74968 121.33712 3085 ft 196 kts 108°
2026-04-27 06:04 -30.75445 121.35194 3040 ft 197 kts 108°
2026-04-27 06:04 -30.75925 121.36678 2785 ft 196 kts 108°
2026-04-27 06:05 -30.76388 121.38104 2488 ft 184 kts 108°
2026-04-27 06:05 -30.76823 121.39442 2256 ft 169 kts 108°
2026-04-27 06:05 -30.77224 121.40665 2062 ft 152 kts 110°
2026-04-27 06:05 -30.77642 121.41750 1873 ft 144 kts 111°
2026-04-27 06:06 -30.78007 121.42788 1697 ft 136 kts 109°
2026-04-27 06:06 -30.78328 121.43809 1563 ft 136 kts 107°
2026-04-27 06:06 -30.78643 121.44839 1404 ft 133 kts 107°
2026-04-27 06:06 -30.78956 121.45849 1221 ft 132 kts 109°
2026-04-27 06:07 -30.79194 121.46598 1194 ft 49 kts 109°
2026-04-27 06:07 -30.79230 121.46703 1192 ft 0 kts 112°
2026-04-27 06:07 -30.79266 121.46815 1190 ft 27 kts 110°
2026-04-27 06:07 -30.79332 121.47020 1186 ft 25 kts 111°
2026-04-27 06:08 -30.79393 121.47212 1181 ft 25 kts 110°
2026-04-27 06:08 -30.79422 121.47358 1176 ft 14 kts 69°
2026-04-27 06:08 -30.79437 121.47342 1177 ft 10 kts 292°
2026-04-27 06:08 -30.79397 121.47227 1181 ft 17 kts 291°
2026-04-27 06:09 -30.79361 121.47112 1184 ft 13 kts 291°
2026-04-27 06:09 -30.79319 121.46984 1187 ft 21 kts 291°
2026-04-27 06:09 -30.79271 121.46838 1189 ft 17 kts 290°
2026-04-27 06:09 -30.79220 121.46680 1192 ft 24 kts 290°
2026-04-27 06:10 -30.79160 121.46494 1196 ft 25 kts 290°
2026-04-27 06:10 -30.79096 121.46298 1203 ft 27 kts 290°
2026-04-27 06:10 -30.79027 121.46081 1209 ft 29 kts 290°
2026-04-27 06:10 -30.78961 121.45871 1214 ft 24 kts 290°
2026-04-27 06:11 -30.78923 121.45754 1217 ft 9 kts 291°
2026-04-27 06:11 -30.78881 121.45701 1218 ft 10 kts
2026-04-27 06:11 -30.78810 121.45724 1216 ft 10 kts 20°
2026-04-27 06:11 -30.78736 121.45756 1213 ft 12 kts 21°
2026-04-27 06:12 -30.78663 121.45784 1213 ft 9 kts 358°
2026-04-27 06:12 -30.78621 121.45750 1214 ft 5 kts 313°
2026-04-27 06:12 -30.78603 121.45727 1214 ft 4 kts 312°
2026-04-27 06:12 -30.78591 121.45715 1214 ft 1 kts 353°
2026-04-27 06:13 -30.78581 121.45721 1214 ft 1 kts 36°
2026-04-27 06:13 -30.78577 121.45727 1214 ft 0 kts 53°